STARLINK-37732, 69307

Orbit data source: Space-Track

STARLINK-37732, 69307 is a payload satellite owned by SpaceX/Seattle (US) in SSO that was launched on Sat, 30 May 2026 UTC via an FALCON 9 launch vehicle from the Air Force Western Test Range (AFWTR). Payload-class satellites include a variety of spacecraft equipped with specific instruments for various scientific and technological missions. These include communications satellites like Starlink; space stations such as the ISS; scientific satellites like the Hubble; Earth observation satellites from companies like Planet Labs, Umbra, and HawkEye 360; GPS; miniature CubeSats for education and research; and military/defense satellites.

Loading next visibility...
Identifier
69307, 2026-119M
Orbit
SSO
Country
Flag of USUS
Related business
Manufacturer
SpaceX/Seattle
Mission
Operational spacecraft
Bus & Motor
STARLINK V2MO, Unknown motor
Mass
575 kg wet, ~530 kg dry
Launch date (UTC)
2026-05-30 (2 months ago)
Launch vehicle
FALCON 9
Launch site
Air Force Western Test Range (AFWTR)
Object type
Payload
Rocket body
Debris
Shape & HBR
BOX + PAN, 17.7 m
Radar Cross Section
Large (>1 m²)

Expand to show TLE details & history
Last TLE update: 12 hours ago

TLE from 12 hours ago
0 STARLINK-37732
1 69307U 26119M   26206.53272540  .00016380  00000-0  50836-3 0  9991
2 69307  97.2856 232.0889 0000254 159.3120 200.8133 15.33460584  9935
Epoch: 2026-07-25T12:47Z
TLE epoch observation values (Epoch: 2026-07-25T12:47:07.474Z)
Latitude
-0.00004°
Longitude
97.06411°
Altitude
468.771 km
Speed
7.632 km/s
True Right ascension
15h 28m 21s
True Declination
0° 00' 00"
Sunlit
Object was in daylight at epoch
Visualization orbit readout
Latitude
Unknown
Longitude
Unknown
Altitude
Unknown
Speed
Unknown
Apparent Right ascension
Unknown
Apparent Declination
Unknown
Sunlit
N/A
Visualization observer readout
Local Sidereal Time
13:35:15
Azimuth
Unknown
Elevation
Unknown
Doppler factor
Unknown
Orbital elements
Apogee altitude
462.613 km
Perigee altitude
462.266 km
Semi-major axis
6,840.577 km
Eccentricity
0.00003
Inclination
97.2856°
RAAN
232.0889°
Arg. of periapsis
159.312°
True anomaly
200.81227°
Mean anomaly
200.8133°
Eccentric anomaly
200.81278°
Mean motion
3.83623 °/min
Orbital period
93.84 mins
BSTAR
0.00050836
Loading maneuver chart data...
Computing Atmospheric mass density...
Loading historical data...
Loading historical data...
Loading historical data...
Loading historical data...
Loading historical data...
Loading historical data...
Loading historical data...

Documentation

Showing up to 5 results
|